Location: Saint-Palais-sur-Mer
(45.6429°N, 1.0859°W)
Time: 09:46:03
(UTC+01:00)

Vanguard 1 - All Passes

Search period start: 15 February 2026 00:00
Search period end: 25 February 2026 00:00
Orbit: 652 x 3820 km, 34.3° (Epoch: 13 February)

Date Brightness Start Highest point End Pass type
(mag) Time Alt. Az. Time Alt. Az. Time Alt. Az.
15 Feb - 00:31:18 10° W 00:46:52 24° SW 01:01:21 10° S visible
15 Feb - 15:24:34 10° S 15:33:25 27° SE 15:46:51 10° E daylight
15 Feb - 17:41:25 10° SW 17:54:21 53° SSE 18:15:04 10° E daylight
15 Feb - 20:01:37 10° W 20:18:26 58° S 20:41:00 10° ESE visible
15 Feb - 22:24:23 10° W 22:43:05 42° SSW 23:03:02 10° SSE visible
16 Feb - 00:52:57 10° W 01:05:31 18° SW 01:17:25 10° SSW visible
16 Feb - 15:42:40 10° SSW 15:52:05 33° SE 16:07:06 10° E daylight
16 Feb - 18:00:24 10° WSW 18:13:38 56° SSE 18:34:48 10° E daylight
16 Feb - 20:20:57 10° W 20:37:54 55° SSW 21:00:14 10° ESE visible
16 Feb - 22:44:15 10° W 23:02:13 36° SW 23:21:10 10° SSE visible
17 Feb - 01:16:51 10° WSW 01:24:06 12° SW 01:31:08 10° SW visible
17 Feb - 13:49:22 10° SE 13:52:10 11° SE 13:55:20 10° ESE daylight
17 Feb - 16:01:05 10° SSW 16:10:54 39° SSE 16:27:09 10° E daylight
17 Feb - 18:19:29 10° WSW 18:32:59 57° S 18:54:27 10° ESE daylight
17 Feb - 20:40:22 10° W 20:57:21 51° SSW 21:19:16 10° SE visible
17 Feb - 23:04:23 10° W 23:21:13 30° SW 23:38:51 10° SSE visible
18 Feb - 14:05:04 10° SSE 14:10:33 16° SE 14:17:50 10° E daylight
18 Feb - 16:19:43 10° SW 16:29:50 44° SSE 16:47:03 10° E daylight
18 Feb - 18:38:38 10° WSW 18:52:24 57° S 19:14:01 10° ESE visible
18 Feb - 20:59:51 10° W 21:16:43 47° SSW 21:38:04 10° SE visible
18 Feb - 23:24:58 10° W 23:40:09 24° SW 23:55:57 10° S visible
19 Feb - 14:22:26 10° S 14:29:02 22° SE 14:38:43 10° E daylight
19 Feb - 16:38:30 10° SW 16:48:55 48° SSE 17:06:53 10° E daylight
19 Feb - 18:57:51 10° WSW 19:11:50 56° S 19:33:28 10° ESE visible
19 Feb - 21:19:27 10° W 21:36:02 41° SSW 21:56:35 10° SSE visible
19 Feb - 23:46:22 10° W 23:59:00 19° SW 00:12:04 10° SSW visible
20 Feb - 14:40:24 10° SSW 14:47:40 27° SE 14:59:04 10° E daylight
20 Feb - 16:57:26 10° WSW 17:08:06 52° SSE 17:26:38 10° E daylight
20 Feb - 19:17:06 10° W 19:31:16 53° S 19:52:45 10° ESE visible
20 Feb - 21:39:15 10° W 21:55:16 36° SSW 22:14:44 10° SSE visible
21 Feb - 00:09:36 10° WSW 00:17:48 13° SW 00:26:10 10° SSW visible
21 Feb - 14:58:43 10° SSW 15:06:25 33° SSE 15:19:08 10° E daylight
21 Feb - 17:16:28 10° WSW 17:27:22 53° S 17:46:19 10° ESE daylight
21 Feb - 19:36:27 10° W 19:50:42 49° SSW 20:11:51 10° SE visible
21 Feb - 21:59:16 10° W 22:14:26 30° SW 22:32:26 10° SSE visible
22 Feb - 13:04:29 10° SE 13:06:45 11° SE 13:09:19 10° ESE daylight
22 Feb - 15:17:18 10° SW 15:25:18 38° SSE 15:39:02 10° E daylight
22 Feb - 17:35:33 10° WSW 17:46:42 54° S 18:05:55 10° ESE daylight
22 Feb - 19:55:52 10° W 20:10:05 45° SSW 20:30:42 10° SE visible
22 Feb - 22:19:44 10° W 22:33:31 24° SW 22:49:30 10° S visible
23 Feb - 13:20:49 10° S 13:25:16 16° SE 13:31:09 10° E daylight
23 Feb - 15:36:03 10° SW 15:44:19 43° SSE 15:58:50 10° E daylight
23 Feb - 17:54:43 10° WSW 18:06:04 52° S 18:25:24 10° ESE daylight
23 Feb - 20:15:24 10° W 20:29:27 39° SSW 20:49:14 10° SE visible
23 Feb - 22:41:00 10° WSW 22:52:34 18° SW 23:05:35 10° S visible
24 Feb - 13:38:30 10° S 13:43:52 21° SE 13:51:40 10° E daylight
24 Feb - 15:54:55 10° SW 16:03:25 46° SSE 16:18:34 10° E daylight
24 Feb - 18:13:56 10° W 18:25:27 50° S 18:44:43 10° ESE daylight
24 Feb - 20:35:07 10° W 20:48:46 34° SSW 21:07:24 10° SSE visible
24 Feb - 23:04:08 10° WSW 23:11:35 13° SW 23:19:35 10° SSW visible
